This is the latest recevied weather packets stored in our database for station/object OK1VCF-8. If no packets are shown the sender has not sent any weather packets the latest 10 day(s).
| Time | Temp. | Humidity | Pressure | Rain* | Wind** | Luminosity | Snow |
|---|---|---|---|---|---|---|---|
| 1777641405 | 20° C | 34% | 1028.2 hPa | - | - | - | - |
| 1777640966 | 20° C | 34% | 1028.2 hPa | - | - | - | - |
| 1777640524 | 20° C | 34% | 1028.4 hPa | - | - | - | - |
| 1777640070 | 20° C | 33% | 1028.6 hPa | - | - | - | - |
| 1777639597 | 19.44° C | 34% | 1028.8 hPa | - | - | - | - |
| 1777638937 | 19.44° C | 34% | 1028.7 hPa | - | - | - | - |
| 1777638455 | 18.89° C | 34% | 1029 hPa | - | - | - | - |
| 1777637971 | 18.89° C | 34% | 1029 hPa | - | - | - | - |
| 1777637487 | 18.89° C | 34% | 1029 hPa | - | - | - | - |
| 1777637006 | 18.89° C | 34% | 1029.1 hPa | - | - | - | - |
| 1777636527 | 18.89° C | 34% | 1029.2 hPa | - | - | - | - |
| 1777636050 | 18.89° C | 34% | 1029.2 hPa | - | - | - | - |
| 1777635571 | 18.89° C | 35% | 1029.3 hPa | - | - | - | - |
| 1777635114 | 18.89° C | 36% | 1029.2 hPa | - | - | - | - |
| 1777634661 | 18.33° C | 35% | 1029.4 hPa | - | - | - | - |
| 1777634219 | 18.33° C | 36% | 1029.4 hPa | - | - | - | - |
| 1777633780 | 18.33° C | 36% | 1029.6 hPa | - | - | - | - |
| 1777633343 | 17.78° C | 37% | 1029.8 hPa | - | - | - | - |
| 1777632902 | 17.78° C | 36% | 1029.8 hPa | - | - | - | - |
| 1777632465 | 17.78° C | 37% | 1029.9 hPa | - | - | - | - |
| 1777631862 | 18.33° C | 37% | 1030 hPa | - | - | - | - |
| 1777631414 | 17.78° C | 38% | 1030 hPa | - | - | - | - |
| 1777630977 | 17.78° C | 38% | 1030.2 hPa | - | - | - | - |
| 1777630536 | 17.22° C | 38% | 1030.2 hPa | - | - | - | - |
| 1777630097 | 17.78° C | 38% | 1030.3 hPa | - | - | - | - |
* Rain since midnight (hover to see other rain measurements)
** Current wind speed in m/s (hover to see current wind gust speed)